Time,TemperatureF,DewpointF,PressureIn,WindDirection,WindDirectionDegrees,WindSpeedMPH,WindSpeedGustMPH,Humidity,HourlyPrecipIn,Conditions,Clouds,dailyrainin,SoftwareType,DateUTC
2013-03-04 00:01:00,29.0,22.0,30.16,NW,307,0.0,1.0,76,0.00,,,0.00,,2013-03-04 08:01:00,
2013-03-04 00:11:00,29.0,22.0,30.16,NW,307,0.0,1.0,76,0.00,,,0.00,,2013-03-04 08:11:00,
2013-03-04 00:21:00,28.0,21.0,30.17,NW,307,0.0,2.0,76,0.00,,,0.00,,2013-03-04 08:21:00,
2013-03-04 00:31:00,28.0,22.0,30.18,NW,309,0.0,1.0,78,0.00,,,0.00,,2013-03-04 08:31:00,
2013-03-04 00:41:00,28.0,22.0,30.18,NW,309,0.0,1.0,78,0.00,,,0.00,,2013-03-04 08:41:00,
2013-03-04 00:52:00,28.0,22.0,30.18,NW,306,2.0,3.0,79,0.00,,,0.00,,2013-03-04 08:52:00,
2013-03-04 01:01:00,29.0,22.0,30.18,WSW,242,1.0,6.0,75,0.00,,,0.00,,2013-03-04 09:01:00,
2013-03-04 01:11:00,29.0,22.0,30.18,WSW,242,1.0,6.0,75,0.00,,,0.00,,2013-03-04 09:11:00,
2013-03-04 01:21:00,27.0,22.0,30.19,West,272,0.0,1.0,81,0.00,,,0.00,,2013-03-04 09:21:00,
2013-03-04 01:31:00,26.0,21.0,30.20,WNW,296,0.0,2.0,81,0.00,,,0.00,,2013-03-04 09:31:00,
2013-03-04 01:41:00,26.0,21.0,30.20,WNW,296,0.0,2.0,81,0.00,,,0.00,,2013-03-04 09:41:00,
2013-03-04 01:52:00,25.0,21.0,30.20,WNW,295,0.0,2.0,83,0.00,,,0.00,,2013-03-04 09:52:00,
2013-03-04 02:01:00,27.0,22.0,30.21,WNW,294,1.0,3.0,82,0.00,,,0.00,,2013-03-04 10:01:00,
2013-03-04 02:11:00,27.0,22.0,30.21,WNW,294,1.0,3.0,82,0.00,,,0.00,,2013-03-04 10:11:00,
2013-03-04 02:21:00,28.0,22.0,30.21,East,98,1.0,4.0,79,0.00,,,0.00,,2013-03-04 10:21:00,
2013-03-04 02:31:00,26.0,21.0,30.22,WNW,286,0.0,1.0,81,0.00,,,0.00,,2013-03-04 10:31:00,
2013-03-04 02:41:00,26.0,21.0,30.22,WNW,286,0.0,1.0,81,0.00,,,0.00,,2013-03-04 10:41:00,
2013-03-04 02:52:00,28.0,23.0,30.22,WNW,294,1.0,2.0,82,0.00,,,0.00,,2013-03-04 10:52:00,
2013-03-04 03:01:00,28.0,23.0,30.22,NW,309,0.0,2.0,81,0.00,,,0.00,,2013-03-04 11:01:00,
2013-03-04 03:11:00,28.0,23.0,30.22,NW,309,0.0,2.0,81,0.00,,,0.00,,2013-03-04 11:11:00,
2013-03-04 03:21:00,28.0,23.0,30.22,WNW,282,0.0,2.0,82,0.00,,,0.00,,2013-03-04 11:21:00,
2013-03-04 03:31:00,29.0,24.0,30.23,NE,39,2.0,6.0,82,0.00,,,0.00,,2013-03-04 11:31:00,
2013-03-04 03:41:00,29.0,24.0,30.23,NE,39,2.0,6.0,82,0.00,,,0.00,,2013-03-04 11:41:00,
2013-03-04 03:52:00,28.0,24.0,30.22,West,261,0.0,3.0,83,0.00,,,0.00,,2013-03-04 11:52:00,
2013-03-04 04:01:00,27.0,23.0,30.23,WNW,286,1.0,2.0,85,0.00,,,0.00,,2013-03-04 12:01:00,
2013-03-04 04:11:00,27.0,23.0,30.23,WNW,286,1.0,2.0,85,0.00,,,0.00,,2013-03-04 12:11:00,
2013-03-04 04:22:00,27.0,23.0,30.24,NNW,330,0.0,2.0,85,0.00,,,0.00,,2013-03-04 12:22:00,
2013-03-04 04:32:00,26.0,22.0,30.24,WNW,283,0.0,2.0,85,0.00,,,0.00,,2013-03-04 12:32:00,
2013-03-04 04:42:00,26.0,22.0,30.24,WNW,283,0.0,2.0,85,0.00,,,0.00,,2013-03-04 12:42:00,
2013-03-04 04:52:00,25.0,21.0,30.24,West,267,1.0,2.0,84,0.00,,,0.00,,2013-03-04 12:52:00,
2013-03-04 05:02:00,25.0,22.0,30.25,WNW,300,0.0,2.0,89,0.00,,,0.00,,2013-03-04 13:02:00,
2013-03-04 05:11:00,25.0,22.0,30.25,WNW,300,0.0,2.0,89,0.00,,,0.00,,2013-03-04 13:11:00,
2013-03-04 05:21:00,26.0,23.0,30.25,WNW,294,0.0,3.0,88,0.00,,,0.00,,2013-03-04 13:21:00,
2013-03-04 05:31:00,26.0,23.0,30.25,West,275,2.0,3.0,89,0.00,,,0.00,,2013-03-04 13:31:00,
2013-03-04 05:41:00,26.0,23.0,30.25,West,275,2.0,3.0,89,0.00,,,0.00,,2013-03-04 13:41:00,
2013-03-04 05:52:00,25.0,21.0,30.26,West,275,0.0,2.0,86,0.00,,,0.00,,2013-03-04 13:52:00,
2013-03-04 06:01:00,26.0,23.0,30.26,NNW,336,1.0,3.0,88,0.00,,,0.00,,2013-03-04 14:01:00,
2013-03-04 06:11:00,26.0,23.0,30.26,NNW,336,1.0,3.0,88,0.00,,,0.00,,2013-03-04 14:11:00,
2013-03-04 06:22:00,27.0,24.0,30.26,NNW,335,0.0,6.0,88,0.00,,,0.00,,2013-03-04 14:22:00,
2013-03-04 06:31:00,26.0,23.0,30.26,NNW,329,0.0,2.0,88,0.00,,,0.00,,2013-03-04 14:31:00,
2013-03-04 06:41:00,26.0,23.0,30.26,NNW,329,0.0,2.0,88,0.00,,,0.00,,2013-03-04 14:41:00,
2013-03-04 06:52:00,26.0,23.0,30.27,NW,312,0.0,1.0,88,0.00,,,0.00,,2013-03-04 14:52:00,
2013-03-04 07:01:00,25.0,22.0,30.27,NW,312,0.0,1.0,88,0.00,,,0.00,,2013-03-04 15:01:00,
2013-03-04 07:11:00,25.0,22.0,30.27,NW,312,0.0,1.0,88,0.00,,,0.00,,2013-03-04 15:11:00,
2013-03-04 07:21:00,26.0,23.0,30.27,NW,310,0.0,1.0,89,0.00,,,0.00,,2013-03-04 15:21:00,
2013-03-04 07:31:00,28.0,25.0,30.28,NW,312,0.0,1.0,87,0.00,,,0.00,,2013-03-04 15:31:00,
2013-03-04 07:41:00,28.0,25.0,30.28,NW,312,0.0,1.0,87,0.00,,,0.00,,2013-03-04 15:41:00,
2013-03-04 07:52:00,29.0,25.0,30.28,NNE,18,1.0,3.0,85,0.00,,,0.00,,2013-03-04 15:52:00,
2013-03-04 08:02:00,30.0,25.0,30.28,NNW,334,0.0,5.0,83,0.00,,,0.00,,2013-03-04 16:02:00,
2013-03-04 08:11:00,30.0,25.0,30.28,NNW,334,0.0,5.0,83,0.00,,,0.00,,2013-03-04 16:11:00,
2013-03-04 08:21:00,30.0,25.0,30.28,NW,324,1.0,3.0,80,0.00,,,0.00,,2013-03-04 16:21:00,
2013-03-04 08:31:00,30.0,25.0,30.29,NNE,15,0.0,5.0,80,0.00,,,0.00,,2013-03-04 16:31:00,
2013-03-04 08:41:00,30.0,25.0,30.29,NNE,15,0.0,5.0,80,0.00,,,0.00,,2013-03-04 16:41:00,
2013-03-04 08:52:00,31.0,26.0,30.29,North,355,0.0,4.0,80,0.00,,,0.00,,2013-03-04 16:52:00,
2013-03-04 09:01:00,31.0,25.0,30.29,North,11,1.0,3.0,78,0.00,,,0.00,,2013-03-04 17:01:00,
2013-03-04 09:11:00,31.0,25.0,30.29,North,11,1.0,3.0,78,0.00,,,0.00,,2013-03-04 17:11:00,
2013-03-04 09:21:00,32.0,26.0,30.29,NNW,338,2.0,4.0,77,0.00,,,0.00,,2013-03-04 17:21:00,
2013-03-04 09:31:00,33.0,26.0,30.29,NW,324,0.0,4.0,76,0.00,,,0.00,,2013-03-04 17:31:00,
2013-03-04 09:42:00,33.0,26.0,30.29,NW,324,0.0,4.0,76,0.00,,,0.00,,2013-03-04 17:42:00,
2013-03-04 09:52:00,34.0,26.0,30.30,NNW,348,1.0,5.0,72,0.00,,,0.00,,2013-03-04 17:52:00,
2013-03-04 10:01:00,34.0,26.0,30.29,NE,39,3.0,5.0,72,0.00,,,0.00,,2013-03-04 18:01:00,
2013-03-04 10:11:00,34.0,26.0,30.29,NE,39,3.0,5.0,72,0.00,,,0.00,,2013-03-04 18:11:00,
2013-03-04 10:21:00,34.0,25.0,30.29,ENE,59,3.0,4.0,70,0.00,,,0.00,,2013-03-04 18:21:00,
2013-03-04 10:31:00,36.0,26.0,30.29,ENE,68,3.0,4.0,66,0.00,,,0.00,,2013-03-04 18:31:00,
2013-03-04 10:42:00,36.0,26.0,30.29,ENE,68,3.0,4.0,66,0.00,,,0.00,,2013-03-04 18:42:00,
2013-03-04 10:52:00,36.0,25.0,30.29,NE,51,0.0,4.0,65,0.00,,,0.00,,2013-03-04 18:52:00,
2013-03-04 11:01:00,37.0,24.0,30.28,ENE,60,2.0,5.0,60,0.00,,,0.00,,2013-03-04 19:01:00,
2013-03-04 11:11:00,37.0,24.0,30.28,ENE,60,2.0,5.0,60,0.00,,,0.00,,2013-03-04 19:11:00,
2013-03-04 11:21:00,37.0,24.0,30.27,NNW,340,3.0,5.0,59,0.00,,,0.00,,2013-03-04 19:21:00,
2013-03-04 11:31:00,38.0,23.0,30.26,ENE,74,2.0,6.0,54,0.00,,,0.00,,2013-03-04 19:31:00,
2013-03-04 11:41:00,38.0,23.0,30.26,ENE,74,2.0,6.0,54,0.00,,,0.00,,2013-03-04 19:41:00,
2013-03-04 11:52:00,40.0,23.0,30.26,SSE,155,3.0,7.0,51,0.00,,,0.00,,2013-03-04 19:52:00,
2013-03-04 12:01:00,40.0,23.0,30.25,NNE,28,1.0,7.0,50,0.00,,,0.00,,2013-03-04 20:01:00,
2013-03-04 12:11:00,40.0,23.0,30.25,NNE,28,1.0,7.0,50,0.00,,,0.00,,2013-03-04 20:11:00,
2013-03-04 12:21:00,41.0,22.0,30.25,East,88,4.0,7.0,47,0.00,,,0.00,,2013-03-04 20:21:00,
2013-03-04 12:31:00,41.0,21.0,30.24,South,189,4.0,6.0,45,0.00,,,0.00,,2013-03-04 20:31:00,
2013-03-04 12:41:00,41.0,21.0,30.24,South,189,4.0,6.0,45,0.00,,,0.00,,2013-03-04 20:41:00,
2013-03-04 12:52:00,40.0,19.0,30.24,ENE,73,4.0,7.0,43,0.00,,,0.00,,2013-03-04 20:52:00,
2013-03-04 13:01:00,41.0,23.0,30.23,West,262,1.0,3.0,49,0.00,,,0.00,,2013-03-04 21:01:00,
2013-03-04 13:11:00,41.0,23.0,30.23,West,262,1.0,3.0,49,0.00,,,0.00,,2013-03-04 21:11:00,
2013-03-04 13:21:00,41.0,21.0,30.23,SSW,205,0.0,5.0,44,0.00,,,0.00,,2013-03-04 21:21:00,
2013-03-04 13:31:00,41.0,21.0,30.22,SW,229,0.0,3.0,44,0.00,,,0.00,,2013-03-04 21:31:00,
2013-03-04 13:42:00,41.0,21.0,30.22,SW,229,0.0,3.0,44,0.00,,,0.00,,2013-03-04 21:42:00,
2013-03-04 13:52:00,40.0,20.0,30.21,SSE,150,1.0,3.0,44,0.00,,,0.00,,2013-03-04 21:52:00,
2013-03-04 14:01:00,40.0,20.0,30.20,NE,42,2.0,5.0,45,0.00,,,0.00,,2013-03-04 22:01:00,
2013-03-04 14:11:00,40.0,20.0,30.20,NE,42,2.0,5.0,45,0.00,,,0.00,,2013-03-04 22:11:00,
2013-03-04 14:21:00,39.0,22.0,30.20,North,11,1.0,3.0,50,0.00,,,0.00,,2013-03-04 22:21:00,
2013-03-04 14:31:00,38.0,22.0,30.19,NNE,30,1.0,5.0,52,0.00,,,0.00,,2013-03-04 22:31:00,
2013-03-04 14:42:00,38.0,22.0,30.19,NNE,30,1.0,5.0,52,0.00,,,0.00,,2013-03-04 22:42:00,
2013-03-04 14:52:00,40.0,21.0,30.19,NNW,346,0.0,2.0,46,0.00,,,0.00,,2013-03-04 22:52:00,
2013-03-04 15:01:00,40.0,20.0,30.19,NNE,17,1.0,2.0,45,0.00,,,0.00,,2013-03-04 23:01:00,
2013-03-04 15:11:00,40.0,20.0,30.19,NNE,17,1.0,2.0,45,0.00,,,0.00,,2013-03-04 23:11:00,
2013-03-04 15:21:00,40.0,20.0,30.19,NNW,343,0.0,2.0,44,0.00,,,0.00,,2013-03-04 23:21:00,
2013-03-04 15:31:00,40.0,19.0,30.19,NNW,344,1.0,2.0,43,0.00,,,0.00,,2013-03-04 23:31:00,
2013-03-04 15:41:00,40.0,19.0,30.19,NNW,344,1.0,2.0,43,0.00,,,0.00,,2013-03-04 23:41:00,
2013-03-04 15:52:00,40.0,21.0,30.18,NNW,345,1.0,2.0,46,0.00,,,0.00,,2013-03-04 23:52:00,
2013-03-04 16:01:00,40.0,21.0,30.17,NNE,14,1.0,3.0,46,0.00,,,0.00,,2013-03-05 00:01:00,
2013-03-04 16:11:00,40.0,21.0,30.17,NNE,14,1.0,3.0,46,0.00,,,0.00,,2013-03-05 00:11:00,
2013-03-04 16:21:00,40.0,20.0,30.17,NNW,340,1.0,4.0,45,0.00,,,0.00,,2013-03-05 00:21:00,
2013-03-04 16:32:00,41.0,21.0,30.17,NE,42,1.0,3.0,45,0.00,,,0.00,,2013-03-05 00:32:00,
2013-03-04 16:41:00,41.0,21.0,30.17,NE,42,1.0,3.0,45,0.00,,,0.00,,2013-03-05 00:41:00,
2013-03-04 16:52:00,40.0,23.0,30.16,North,355,0.0,2.0,50,0.00,,,0.00,,2013-03-05 00:52:00,
2013-03-04 17:01:00,39.0,22.0,30.16,NNW,340,0.0,1.0,50,0.00,,,0.00,,2013-03-05 01:01:00,
2013-03-04 17:11:00,39.0,22.0,30.16,NNW,340,0.0,1.0,50,0.00,,,0.00,,2013-03-05 01:11:00,
2013-03-04 17:21:00,38.0,23.0,30.15,NNW,338,0.0,2.0,54,0.00,,,0.00,,2013-03-05 01:21:00,
2013-03-04 17:32:00,36.0,21.0,30.15,NNW,338,1.0,1.0,54,0.00,,,0.00,,2013-03-05 01:32:00,
2013-03-04 17:41:00,36.0,21.0,30.15,NNW,338,1.0,1.0,54,0.00,,,0.00,,2013-03-05 01:41:00,
2013-03-04 17:52:00,36.0,21.0,30.15,NNW,329,1.0,2.0,55,0.00,,,0.00,,2013-03-05 01:52:00,
2013-03-04 18:01:00,35.0,20.0,30.14,NW,319,0.0,3.0,55,0.00,,,0.00,,2013-03-05 02:01:00,
2013-03-04 18:11:00,35.0,20.0,30.14,NW,319,0.0,3.0,55,0.00,,,0.00,,2013-03-05 02:11:00,
2013-03-04 18:21:00,33.0,20.0,30.14,NW,319,0.0,1.0,58,0.00,,,0.00,,2013-03-05 02:21:00,
2013-03-04 18:31:00,32.0,20.0,30.14,NW,319,0.0,0.0,61,0.00,,,0.00,,2013-03-05 02:31:00,
2013-03-04 18:41:00,32.0,20.0,30.14,NW,319,0.0,0.0,61,0.00,,,0.00,,2013-03-05 02:41:00,
2013-03-04 18:52:00,31.0,20.0,30.13,NW,319,0.0,1.0,64,0.00,,,0.00,,2013-03-05 02:52:00,
2013-03-04 19:01:00,30.0,20.0,30.13,NW,317,0.0,1.0,67,0.00,,,0.00,,2013-03-05 03:01:00,
2013-03-04 19:11:00,30.0,20.0,30.13,NW,317,0.0,1.0,67,0.00,,,0.00,,2013-03-05 03:11:00,
2013-03-04 19:21:00,31.0,21.0,30.13,WNW,300,0.0,2.0,65,0.00,,,0.00,,2013-03-05 03:21:00,
2013-03-04 19:31:00,32.0,20.0,30.14,NW,305,1.0,3.0,62,0.00,,,0.00,,2013-03-05 03:31:00,
2013-03-04 19:41:00,32.0,20.0,30.14,NW,305,1.0,3.0,62,0.00,,,0.00,,2013-03-05 03:41:00,
2013-03-04 19:52:00,31.0,21.0,30.14,NW,320,1.0,2.0,65,0.00,,,0.00,,2013-03-05 03:52:00,
2013-03-04 20:01:00,32.0,20.0,30.13,NW,304,1.0,3.0,60,0.00,,,0.00,,2013-03-05 04:01:00,
2013-03-04 20:11:00,32.0,20.0,30.13,NW,304,1.0,3.0,60,0.00,,,0.00,,2013-03-05 04:11:00,
2013-03-04 20:21:00,30.0,20.0,30.13,NW,304,0.0,1.0,66,0.00,,,0.00,,2013-03-05 04:21:00,
2013-03-04 20:31:00,31.0,20.0,30.12,WNW,303,1.0,3.0,64,0.00,,,0.00,,2013-03-05 04:31:00,
2013-03-04 20:41:00,31.0,20.0,30.12,WNW,303,1.0,3.0,64,0.00,,,0.00,,2013-03-05 04:41:00,
2013-03-04 20:52:00,31.0,20.0,30.13,NW,307,1.0,2.0,64,0.00,,,0.00,,2013-03-05 04:52:00,
2013-03-04 21:01:00,31.0,20.0,30.12,NW,321,1.0,4.0,62,0.00,,,0.00,,2013-03-05 05:01:00,
2013-03-04 21:11:00,31.0,20.0,30.12,NW,321,1.0,4.0,62,0.00,,,0.00,,2013-03-05 05:11:00,
2013-03-04 21:22:00,31.0,20.0,30.12,NW,304,0.0,2.0,63,0.00,,,0.00,,2013-03-05 05:22:00,
2013-03-04 21:31:00,30.0,19.0,30.12,NW,310,2.0,4.0,64,0.00,,,0.00,,2013-03-05 05:31:00,
2013-03-04 21:41:00,30.0,19.0,30.12,NW,310,2.0,4.0,64,0.00,,,0.00,,2013-03-05 05:41:00,
2013-03-04 21:52:00,30.0,19.0,30.12,NW,314,2.0,4.0,64,0.00,,,0.00,,2013-03-05 05:52:00,
2013-03-04 22:01:00,31.0,20.0,30.11,NW,308,2.0,6.0,62,0.00,,,0.00,,2013-03-05 06:01:00,
2013-03-04 22:11:00,31.0,20.0,30.11,NW,308,2.0,6.0,62,0.00,,,0.00,,2013-03-05 06:11:00,
2013-03-04 22:22:00,30.0,20.0,30.11,WNW,293,1.0,3.0,65,0.00,,,0.00,,2013-03-05 06:22:00,
2013-03-04 22:31:00,30.0,20.0,30.11,NW,305,1.0,5.0,66,0.00,,,0.00,,2013-03-05 06:31:00,
2013-03-04 22:41:00,30.0,20.0,30.11,NW,305,1.0,5.0,66,0.00,,,0.00,,2013-03-05 06:41:00,
2013-03-04 22:52:00,30.0,20.0,30.11,NW,315,1.0,3.0,66,0.00,,,0.00,,2013-03-05 06:52:00,
2013-03-04 23:01:00,30.0,20.0,30.10,NW,305,2.0,5.0,66,0.00,,,0.00,,2013-03-05 07:01:00,
2013-03-04 23:11:00,30.0,20.0,30.10,NW,305,2.0,5.0,66,0.00,,,0.00,,2013-03-05 07:11:00,
2013-03-04 23:21:00,30.0,20.0,30.10,NW,308,1.0,3.0,66,0.00,,,0.00,,2013-03-05 07:21:00,
2013-03-04 23:31:00,29.0,19.0,30.10,NW,316,1.0,6.0,66,0.00,,,0.00,,2013-03-05 07:31:00,
2013-03-04 23:41:00,29.0,19.0,30.10,NW,316,1.0,6.0,66,0.00,,,0.00,,2013-03-05 07:41:00,
2013-03-04 23:52:00,29.0,19.0,30.10,NW,314,1.0,3.0,67,0.00,,,0.00,,2013-03-05 07:52:00,